Total_Precipitation_Accumulation
0.23 0.13 0.10 0.17 0.23 0.15 0.07 0.03 0.01 0.01 0.02 0.02 0.01 0.01 0.01 0.00 0.01 0.02 0.07 0.09 0.26 0.22 0.18 0.23 0.25 0.26 0.24 0.22 0.19 0.16 0.14 0.18 0.20
0.40 0.21 0.06 0.10 0.15 0.22 0.20 0.08 0.00 0.00 0.00 0.01 0.01 0.00 0.00 0.00 0.01 0.02 0.04 0.16 0.28 0.20 0.15 0.18 0.21 0.23 0.24 0.28 0.35 0.43 0.42 0.40 0.32
0.46 0.25 0.11 0.08 0.09 0.16 0.25 0.21 0.11 0.02 0.01 0.03 0.02 0.00 0.00 0.00 0.00 0.00 0.00 0.03 0.02 0.04 0.02 0.04 0.08 0.09 0.08 0.12 0.24 0.24 0.24 0.29 0.34
0.43 0.27 0.15 0.10 0.15 0.21 0.28 0.29 0.22 0.12 0.06 0.05 0.03 0.01 0.01 0.00 0.00 0.00 0.00 0.03 0.02 0.06 0.06 0.07 0.11 0.11 0.09 0.10 0.10 0.13 0.14 0.16 0.18
0.29 0.17 0.11 0.20 0.22 0.26 0.26 0.24 0.27 0.26 0.15 0.07 0.02 0.01 0.00 0.00 0.00 0.00 0.00 0.01 0.02 0.06 0.08 0.11 0.11 0.13 0.16 0.18 0.14 0.10 0.11 0.13 0.15
0.17 0.08 0.08 0.15 0.21 0.25 0.25 0.22 0.20 0.15 0.10 0.08 0.03 0.01 0.00 0.00 0.00 0.00 0.00 0.00 0.01 0.02 0.07 0.06 0.06 0.07 0.10 0.13 0.11 0.08 0.08 0.09 0.13
0.17 0.12 0.09 0.11 0.17 0.16 0.18 0.18 0.18 0.09 0.05 0.02 0.01 0.01 0.00 0.00 0.00 0.00 0.00 0.00 0.01 0.02 0.05 0.07 0.03 0.02 0.03 0.06 0.06 0.06 0.08 0.11 0.16
0.15 0.16 0.09 0.09 0.10 0.06 0.08 0.08 0.06 0.05 0.05 0.05 0.01 0.00 0.00 0.00 0.00 0.00 0.00 0.00 0.01 0.01 0.02 0.05 0.08 0.05 0.02 0.03 0.06 0.10 0.12 0.16 0.19
0.18 0.16 0.15 0.12 0.12 0.10 0.10 0.11 0.08 0.07 0.06 0.06 0.06 0.01 0.00 0.00 0.00 0.00 0.00 0.00 0.00 0.01 0.03 0.08 0.10 0.26 0.22 0.15 0.17 0.14 0.17 0.16 0.12
0.26 0.23 0.25 0.23 0.38 0.24 0.14 0.16 0.15 0.11 0.09 0.08 0.06 0.04 0.00 0.00 0.00 0.00 0.00 0.00 0.00 0.00 0.01 0.06 0.18 0.32 0.30 0.36 0.34 0.27 0.19 0.11 0.07
0.40 0.40 0.40 0.38 0.40 0.50 0.45 0.39 0.36 0.26 0.18 0.11 0.08 0.04 0.01 0.00 0.00 0.00 0.00 0.00 0.00 0.00 0.01 0.04 0.15 0.30 0.28 0.38 0.45 0.43 0.31 0.18 0.14
0.29 0.31 0.31 0.29 0.47 0.68 0.72 0.59 0.46 0.36 0.40 0.32 0.32 0.21 0.15 0.06 0.02 0.00 0.00 0.00 0.00 0.00 0.00 0.03 0.14 0.23 0.22 0.24 0.45 0.61 0.45 0.35 0.33
0.23 0.19 0.21 0.36 0.54 0.55 0.59 0.64 0.54 0.42 0.35 0.29 0.36 0.34 0.27 0.16 0.07 0.03 0.01 0.01 0.00 0.00 0.01 0.02 0.08 0.14 0.14 0.29 0.40 0.59 0.54 0.47 0.47
0.35 0.31 0.24 0.39 0.38 0.40 0.50 0.55 0.58 0.74 0.69 0.44 0.31 0.25 0.28 0.26 0.20 0.11 0.06 0.04 0.03 0.03 0.04 0.03 0.01 0.03 0.11 0.21 0.22 0.34 0.48 0.45 0.42
0.30 0.42 0.55 0.58 0.56 0.49 0.61 0.72 0.75 0.80 0.87 0.97 0.87 0.59 0.29 0.23 0.28 0.39 0.37 0.19 0.15 0.10 0.09 0.05 0.03 0.02 0.07 0.11 0.09 0.08 0.19 0.38 0.44
0.46 0.36 0.46 0.58 0.59 0.67 0.65 0.66 0.69 0.78 0.87 1.16 1.15 1.09 1.12 0.92 0.62 0.52 0.64 0.58 0.40 0.34 0.20 0.05 0.01 0.02 0.02 0.04 0.04 0.06 0.12 0.28 0.49
0.81 0.50 0.51 0.49 0.43 0.44 0.50 0.55 0.62 0.56 0.69 0.75 0.80 0.83 0.72 0.63 0.57 0.67 0.95 0.79 0.60 0.25 0.09 0.03 0.03 0.03 0.03 0.02 0.02 0.02 0.06 0.13 0.34
1.41 1.31 1.22 0.99 0.80 0.78 0.77 0.90 1.19 1.09 1.03 1.19 1.20 0.84 0.66 0.52 0.50 0.44 0.22 0.27 0.25 0.14 0.04 0.03 0.02 0.02 0.01 0.00 0.00 0.02 0.04 0.10 0.23
2.29 2.13 1.89 1.65 1.42 1.36 1.41 1.47 1.54 1.64 1.63 1.59 1.36 1.03 0.72 0.61 0.43 0.34 0.29 0.22 0.15 0.07 0.03 0.02 0.02 0.02 0.02 0.04 0.06 0.11 0.24 0.27 0.36
2.19 2.28 2.47 2.41 2.63 2.66 2.46 2.18 1.87 1.58 1.57 1.50 1.35 1.23 1.14 0.90 0.72 0.48 0.29 0.20 0.15 0.11 0.08 0.09 0.08 0.09 0.14 0.21 0.33 0.47 0.54 0.56 0.69